[[{"header":{"parameterUnit":"m.s-1","parameterCategory":1,"la1":30.2991,"la2":30.254,"lo1":-89.0895,"lo2":-89.0444,"dy":0.0017,"dx":0.0017,"nx":28,"ny":28,"refTime":"2025-04-26T03:00:00:Z","depth":0,"parameterNumber":2,"parameterNumberName":"U-component_of_WINDS"},"data":[0,0,0,0,0,0,0,0,0,0,0,0,0,0,0,0,0,0,0,0,0,0,0,0,0,0,0,0,0,0,0,0,0,0,0,0,0,0,0,0,0,0,0,0,0,0,0,0,0,0,0,0,0,0,0,0,0,0,-0.7832,-0.7831,0,-0.7706,-0.7704,-0.7703,-0.7647,-0.7647,-0.7647,-0.7647,-0.7513,-0.7509,-0.7505,0,0,0,0,0,0,0,0,0,0,0,0,0,-0.8023,-0.802,-0.7832,-0.7831,-0.7829,-0.7706,-0.7704,-0.7702,-0.7647,-0.7647,-0.7647,-0.7647,-0.7514,-0.751,-0.7505,0,0,0,0,0,0,0,0,0,0,0,0,0,-0.7923,-0.8019,-0.7833,-0.7787,-0.7781,-0.7706,-0.7704,-0.7702,-0.7647,-0.7647,-0.7647,-0.7648,-0.7516,-0.751,-0.7505,-0.7464,0,0,-0.7487,-0.7485,0,0,0,0,0,0,0,0,-0.7928,-0.7916,-0.7795,-0.779,-0.7784,-0.7692,-0.7722,-0.7622,-0.7647,-0.7698,-0.7647,-0.7648,-0.7572,-0.7562,-0.7537,-0.7458,-0.7452,-0.7487,-0.7483,-0.7481,-0.7479,0,0,0,0,0,0,0,-0.7935,-0.7921,-0.7782,-0.7793,-0.7786,-0.7771,-0.7757,-0.7703,-0.7635,-0.7693,-0.7689,-0.7675,-0.7569,-0.7543,-0.7534,-0.745,-0.7487,-0.7482,-0.7478,-0.7476,-0.7332,-0.7332,0,0,0,0,0,0,-0.795,-0.7927,-0.7786,-0.7778,-0.7858,-0.7768,-0.7752,-0.7721,-0.7635,-0.7622,-0.7675,-0.7673,-0.7552,-0.754,-0.7529,-0.7476,-0.7481,-0.7476,-0.7472,-0.7332,-0.7332,-0.7331,0,0,0,0,0,0,-0.7955,-0.7938,-0.7791,-0.7851,-0.7831,-0.7764,-0.773,-0.7719,-0.7692,-0.7621,-0.7608,-0.7661,-0.7552,-0.7537,-0.7481,-0.7471,-0.7473,-0.7468,-0.7333,-0.7332,-0.7332,-0.7371,0,0,0,0,0,0,-0.796,-0.794,-0.7925,-0.7851,-0.7829,-0.7747,-0.7729,-0.7716,-0.7683,-0.768,-0.7605,-0.7593,-0.7551,-0.749,-0.7476,-0.7463,-0.7464,-0.7334,-0.7333,-0.7332,-0.737,-0.7371,-0.7373,0,0,0,0,0,-0.7967,-0.794,-0.7924,-0.7908,-0.7808,-0.7746,-0.7733,-0.7687,-0.7683,-0.7666,-0.7621,-0.7595,-0.7475,-0.7485,-0.7468,-0.7454,-0.7334,-0.7333,-0.7332,-0.7369,-0.7371,-0.7373,0,0,0,0,0,0,-0.8011,-0.7929,-0.7911,-0.7859,-0.781,-0.7737,-0.7715,-0.769,-0.764,-0.7639,-0.7583,-0.7566,-0.7516,-0.7479,-0.7492,-0.741,-0.7402,-0.7398,-0.7436,-0.7437,-0.7438,-0.7448,-0.7459,0,0,0,0,0,-0.8015,-0.7973,-0.7903,-0.7864,-0.7841,-0.7782,-0.7753,-0.7723,-0.7669,-0.7648,-0.7598,-0.7546,-0.7497,-0.7465,-0.7415,-0.7365,-0.7348,-0.7347,-0.7348,-0.735,-0.7346,-0.7317,-0.7316,-0.7328,-0.7328,-0.7328,0,0,-0.8022,-0.7972,-0.7949,-0.7872,-0.783,-0.7787,-0.7765,-0.772,-0.7687,-0.764,-0.7585,-0.7548,-0.7486,-0.7433,-0.7407,-0.7401,-0.7339,-0.7348,-0.735,-0.7345,-0.7316,-0.7315,-0.7314,-0.7327,-0.7327,-0.7328,0,0,-0.8013,-0.7971,-0.7934,-0.7894,-0.7832,-0.7794,-0.7786,-0.7716,-0.769,-0.7634,-0.7599,-0.7558,-0.7474,-0.7432,-0.7399,-0.7377,-0.7351,-0.7362,-0.7368,-0.7341,-0.734,-0.7339,-0.7331,-0.7329,-0.7359,-0.7359,-0.7359,0,-0.8029,-0.7964,-0.7918,-0.7875,-0.7842,-0.7801,-0.7763,-0.7725,-0.765,-0.7628,-0.7623,-0.7517,-0.7472,-0.741,-0.7405,-0.738,-0.7367,-0.737,-0.7344,-0.7343,-0.7341,-0.7332,-0.733,-0.7361,-0.7361,-0.7361,-0.736,0,-0.7986,-0.7942,-0.7919,-0.785,-0.7815,-0.7774,-0.7722,-0.7691,-0.7665,-0.7627,-0.7571,-0.7516,-0.7456,-0.7439,-0.7411,-0.7372,-0.737,-0.7355,-0.7345,-0.7342,-0.7333,-0.733,-0.7363,-0.7363,-0.7362,-0.7362,0,0,-0.7999,-0.7907,-0.79,-0.7868,-0.7798,-0.7762,-0.772,-0.7663,-0.7638,-0.7588,-0.7551,-0.7482,-0.7468,-0.7432,-0.7399,-0.7375,-0.7361,-0.7363,-0.7361,-0.7364,-0.7315,-0.7326,-0.7323,-0.7344,-0.7343,-0.7343,-0.732,0,-0.798,-0.7905,-0.7863,-0.7805,-0.7763,-0.7724,-0.7687,-0.764,-0.7604,-0.7563,-0.7522,-0.7474,-0.746,-0.7438,-0.7413,-0.7368,-0.735,-0.7369,-0.7308,-0.7307,-0.7325,-0.7319,-0.733,-0.7311,-0.7317,-0.7316,-0.7315,0,-0.7947,-0.79,-0.7838,-0.7775,-0.7755,-0.7724,-0.7668,-0.7629,-0.7575,-0.7551,-0.7511,-0.7479,-0.7433,-0.7428,-0.7364,-0.7378,-0.735,-0.7325,-0.7323,-0.7315,-0.731,-0.731,-0.7304,-0.7301,-0.7309,-0.731,-0.731,0,-0.7963,-0.7884,-0.7837,-0.7811,-0.7736,-0.7714,-0.7682,-0.7628,-0.7596,-0.7548,-0.7527,-0.7473,-0.7443,-0.7401,-0.7356,-0.7356,-0.7296,-0.7287,-0.7273,-0.7275,-0.7261,-0.7262,-0.7251,-0.7245,-0.7245,-0.7245,-0.7245,0,-0.7946,-0.7909,-0.7843,-0.7814,-0.7772,-0.7725,-0.7685,-0.7648,-0.7601,-0.7564,-0.7527,-0.7492,-0.7434,-0.7393,-0.7357,-0.7309,-0.7295,-0.7274,-0.7264,-0.7277,-0.728,-0.7257,-0.7257,-0.7244,-0.7245,-0.7245,-0.7245,0,-0.7955,-0.791,-0.7856,-0.779,-0.7772,-0.7744,-0.7687,-0.7657,-0.762,-0.7574,-0.756,-0.7501,-0.7451,-0.7402,-0.7333,-0.7309,-0.7261,-0.7249,-0.728,-0.7274,-0.7264,-0.7265,-0.7236,-0.723,-0.723,-0.723,-0.723,0,-0.7947,-0.7918,-0.785,-0.7823,-0.7792,-0.7749,-0.7717,-0.767,-0.7638,-0.7576,-0.7553,-0.75,-0.7455,-0.7376,-0.7326,-0.7274,-0.726,-0.7253,-0.7251,-0.7265,-0.7259,-0.7261,-0.7258,-0.7254,-0.7254,-0.7255,-0.7255,0,-0.7937,-0.7916,-0.7873,-0.7822,-0.7786,-0.7743,-0.7699,-0.7679,-0.7623,-0.7589,-0.7538,-0.7503,-0.7434,-0.7382,-0.7324,-0.7289,-0.7263,-0.7256,-0.725,-0.7262,-0.7281,-0.7271,-0.7283,-0.7257,-0.7257,-0.7256,-0.7256,-0.7256,-0.7936,-0.791,-0.7858,-0.7811,-0.7773,-0.7733,-0.7703,-0.7663,-0.762,-0.7561,-0.7536,-0.7484,-0.7431,-0.7351,-0.7317,-0.7275,-0.7269,-0.726,-0.7258,-0.7256,-0.7259,-0.7289,-0.7265,-0.7265,-0.7264,-0.7264,-0.7264,0,-0.7924,-0.7889,-0.7847,-0.7788,-0.7751,-0.7731,-0.7682,-0.7652,-0.7608,-0.7562,-0.7519,-0.746,-0.741,-0.7358,-0.7304,-0.7281,-0.7267,-0.7268,-0.7269,-0.7261,-0.7268,-0.7278,-0.728,-0.728,-0.728,-0.728,-0.728,-0.728,-0.7913,-0.7867,-0.7841,-0.7776,-0.7741,-0.7691,-0.7665,-0.7628,-0.7591,-0.7528,-0.7486,-0.7454,-0.7405,-0.7348,-0.7301,-0.7287,-0.7268,-0.7273,-0.7255,-0.7262,-0.7261,-0.726,-0.7269,-0.7269,-0.7269,-0.7252,-0.7252,-0.7252]},{"header":{"parameterUnit":"m.s-1","parameterCategory":1,"la1":30.2991,"la2":30.254,"lo1":-89.0895,"lo2":-89.0444,"dy":0.0017,"dx":0.0017,"nx":28,"ny":28,"refTime":"2025-04-26T03:00:00:Z","depth":0,"parameterNumber":3,"parameterNumberName":"V-component_of_WINDS"},"data":[0,0,0,0,0,0,0,0,0,0,0,0,0,0,0,0,0,0,0,0,0,0,0,0,0,0,0,0,0,0,0,0,0,0,0,0,0,0,0,0,0,0,0,0,0,0,0,0,0,0,0,0,0,0,0,0,0,0,1.8732,1.873,0,1.8616,1.8615,1.8614,1.8578,1.8579,1.858,1.858,1.8455,1.8452,1.8448,0,0,0,0,0,0,0,0,0,0,0,0,0,1.8914,1.8911,1.8732,1.873,1.8729,1.8617,1.8615,1.8613,1.8578,1.8579,1.858,1.858,1.8457,1.8452,1.8447,0,0,0,0,0,0,0,0,0,0,0,0,0,1.882,1.891,1.8732,1.8698,1.8694,1.8617,1.8615,1.8613,1.8578,1.8579,1.858,1.8581,1.8458,1.8452,1.8447,1.8393,0,0,1.8429,1.8426,0,0,0,0,0,0,0,0,1.8826,1.8814,1.8704,1.87,1.8695,1.8613,1.8634,1.8539,1.8578,1.8622,1.858,1.8581,1.8507,1.8497,1.8473,1.8387,1.8382,1.8428,1.8425,1.8422,1.8421,0,0,0,0,0,0,0,1.8832,1.8818,1.8686,1.8703,1.8697,1.8686,1.8674,1.8615,1.856,1.8618,1.8615,1.8603,1.8504,1.8479,1.847,1.838,1.8429,1.8423,1.842,1.8418,1.8243,1.8241,0,0,0,0,0,0,1.8846,1.8824,1.8689,1.8682,1.8764,1.8682,1.8668,1.8638,1.8561,1.855,1.8602,1.8601,1.8488,1.8477,1.8465,1.8396,1.8422,1.8417,1.8414,1.8244,1.8242,1.8241,0,0,0,0,0,0,1.885,1.8834,1.8694,1.8752,1.8734,1.8678,1.8645,1.8636,1.861,1.8549,1.8538,1.8586,1.8488,1.8473,1.8411,1.8391,1.8414,1.8409,1.8245,1.8243,1.8242,1.8258,0,0,0,0,0,0,1.8855,1.8836,1.8816,1.8752,1.8731,1.8644,1.8643,1.8633,1.8601,1.8599,1.8531,1.8521,1.8488,1.842,1.8406,1.8383,1.8405,1.8247,1.8244,1.8242,1.8259,1.8257,1.8255,0,0,0,0,0,1.8862,1.8824,1.8816,1.88,1.8706,1.8643,1.8631,1.8595,1.86,1.8578,1.8539,1.8523,1.8396,1.8414,1.8397,1.8373,1.8248,1.8245,1.8242,1.826,1.8257,1.8255,0,0,0,0,0,0,1.8885,1.8815,1.8805,1.8746,1.8701,1.8638,1.861,1.8594,1.8545,1.8545,1.8502,1.8486,1.8427,1.8394,1.8415,1.8316,1.8321,1.8315,1.834,1.8337,1.8335,1.8343,1.84,0,0,0,0,0,1.8884,1.8841,1.8782,1.8735,1.8714,1.8666,1.8637,1.8614,1.8565,1.8545,1.8501,1.8451,1.84,1.8367,1.8317,1.8255,1.8238,1.823,1.8228,1.8227,1.8221,1.8183,1.8178,1.8232,1.8232,1.8232,0,0,1.888,1.8837,1.8812,1.8739,1.8701,1.8655,1.865,1.8602,1.8566,1.8536,1.8475,1.8442,1.8383,1.8321,1.8291,1.8291,1.8203,1.8223,1.8223,1.8218,1.818,1.8175,1.8171,1.8231,1.8231,1.8231,0,0,1.8849,1.8813,1.877,1.8733,1.8677,1.8645,1.8635,1.8574,1.855,1.8489,1.8465,1.8422,1.8335,1.8294,1.8262,1.8216,1.8199,1.8201,1.819,1.8154,1.815,1.8146,1.8127,1.8121,1.8196,1.8196,1.8196,0,1.885,1.8782,1.8749,1.8702,1.867,1.8643,1.8598,1.8562,1.8492,1.8469,1.8472,1.8362,1.8321,1.8247,1.8236,1.8212,1.8197,1.8207,1.8154,1.8149,1.8145,1.8126,1.812,1.8196,1.8196,1.8196,1.8196,0,1.8786,1.8739,1.871,1.8645,1.861,1.8564,1.8521,1.8489,1.8469,1.8437,1.8373,1.8324,1.8262,1.8243,1.8223,1.8166,1.8168,1.8163,1.8166,1.8141,1.8123,1.8115,1.8197,1.8197,1.8197,1.8197,0,0,1.8764,1.8682,1.8672,1.8641,1.8578,1.854,1.8492,1.8434,1.8406,1.8358,1.8315,1.8243,1.8237,1.8201,1.8176,1.8144,1.8108,1.8142,1.814,1.8136,1.804,1.8043,1.8035,1.8098,1.8096,1.8095,1.8044,0,1.8724,1.8639,1.8607,1.8537,1.8492,1.8466,1.8424,1.8379,1.8348,1.8303,1.8267,1.8216,1.8214,1.8192,1.816,1.812,1.8088,1.8123,1.8054,1.8052,1.8067,1.8026,1.8029,1.7983,1.8037,1.8036,1.8035,0,1.8664,1.8618,1.8544,1.8485,1.8464,1.8427,1.8371,1.833,1.8277,1.8256,1.8217,1.8193,1.8139,1.8148,1.8072,1.8097,1.8066,1.8042,1.804,1.803,1.804,1.8013,1.7968,1.796,1.8024,1.8025,1.8026,0,1.8653,1.8572,1.8517,1.8492,1.8422,1.8397,1.8366,1.8315,1.8282,1.8232,1.821,1.8154,1.8122,1.8079,1.804,1.805,1.7966,1.7972,1.7945,1.7946,1.7926,1.7927,1.7874,1.7911,1.7911,1.7912,1.7912,0,1.8609,1.8564,1.8511,1.8477,1.8425,1.8388,1.8337,1.8304,1.8259,1.8216,1.8191,1.815,1.8103,1.8056,1.8025,1.7966,1.7952,1.7932,1.7923,1.7932,1.7935,1.791,1.7911,1.791,1.791,1.791,1.7911,0,1.8588,1.8551,1.8488,1.8428,1.8412,1.8376,1.8323,1.8287,1.8256,1.8201,1.8186,1.8135,1.8078,1.8037,1.7963,1.7942,1.7877,1.787,1.7895,1.7891,1.7865,1.7867,1.7791,1.7778,1.7827,1.7827,1.7827,0,1.8561,1.8526,1.8462,1.8433,1.8403,1.8356,1.8322,1.8285,1.825,1.8188,1.8159,1.8102,1.8053,1.7963,1.7918,1.7861,1.785,1.7828,1.7841,1.7851,1.7847,1.7848,1.7843,1.7825,1.7825,1.7824,1.7824,0,1.8516,1.85,1.8454,1.8401,1.8362,1.8318,1.8273,1.825,1.8204,1.8167,1.8109,1.8072,1.7997,1.7939,1.7878,1.7843,1.7825,1.7821,1.7811,1.7818,1.7833,1.7822,1.7887,1.7822,1.7822,1.7822,1.7822,1.7822,1.8489,1.8456,1.8407,1.8355,1.8318,1.8277,1.8241,1.8205,1.8157,1.8095,1.8075,1.8015,1.7963,1.7879,1.7844,1.7795,1.7795,1.7781,1.7777,1.7774,1.7773,1.7844,1.7784,1.7784,1.7784,1.7784,1.7784,0,1.8441,1.8408,1.8362,1.8301,1.826,1.825,1.82,1.8166,1.8114,1.8068,1.8021,1.7954,1.7898,1.7849,1.7789,1.7759,1.7749,1.7745,1.7745,1.7737,1.7778,1.7791,1.7754,1.7754,1.7754,1.7754,1.7754,1.7754,1.8411,1.8354,1.8332,1.8256,1.8222,1.8165,1.8137,1.8098,1.8061,1.7988,1.7942,1.7911,1.7863,1.78,1.7746,1.7733,1.7711,1.7708,1.7693,1.7731,1.7734,1.7738,1.775,1.7705,1.7705,1.7656,1.7655,1.7655]}]]